Tracking 29892 objects as of 21-Nov-2024
HD Live streaming from Space Station
objects crossing your sky now

ONEWEB-0653

Track ONEWEB-0653 now!
10-day predictions
ONEWEB-0653 is classified as:


NORAD ID: 55815
Int'l Code: 2023-029V
Perigee: 1,211.4 km
Apogee: 1,214.5 km
Inclination: 87.9 °
Period: 109.5 minutes
Semi major axis: 7583 km
RCS: Unknown
Launch date: March 9, 2023
Source: United Kingdom (UK)
Launch site: AIR FORCE EASTERN TEST RANGE (AFETR)
Your satellite tracking list
Your tracking list is empty




NASA's NSSDC Master Catalog

Two Line Element Set (TLE):
1 55815U 23029V   24325.22551789  .00000228  00000-0  58054-3 0  9992
2 55815  87.9035  43.8351 0002043 103.8639 256.2718 13.14505098 83997
Source of the keplerian elements: AFSPC